Simultaneous Nadir Overpasses (SNOs) Predictions

Prediction of SNOs between AQUA and NOAA-19 Satellite Orbit:

Table of predicted SNOs for the next 14.0 days since TLE Epoch: 10/11/2019
Index Date (AQUA) Time (AQUA) Lat,Lon (AQUA) SZA (AQUA ) Date (NOAA-19) Time (NOAA-19) Lat,Lon (NOAA-19) SZA (NOAA-19 ) Distance(km) Time Diff (sec)
1 10/13/2019 03:17:42 -80.24, -82.02 90.96 10/13/2019 03:16:30 -80.10, -83.18 90.95 26.65 72
2 10/13/2019 04:07:08 80.23, 85.72 89.04 10/13/2019 04:07:21 80.22, 85.84 89.02 2.37 13
3 10/15/2019 09:40:52 -80.22,-177.63 90.16 10/15/2019 09:40:48 -80.21,-177.57 90.17 1.35 4
4 10/17/2019 15:14:35 80.20, -80.89 90.62 10/17/2019 15:14:06 80.21, -80.87 90.64 1.02 29
5 10/17/2019 16:04:03 -80.23, 86.43 89.32 10/17/2019 16:05:11 -80.21, 86.41 89.36 2.56 68
6 10/19/2019 20:48:19 -80.19, 15.77 88.60 10/19/2019 20:47:34 -80.19, 15.64 88.57 2.71 45
7 10/19/2019 21:37:46 80.22,-176.87 91.46 10/19/2019 21:38:28 80.22,-176.70 91.44 3.27 42
8 10/22/2019 02:22:02 80.18, 112.43 92.17 10/22/2019 02:20:51 80.19, 112.41 92.21 1.86 71
9 10/22/2019 03:11:30 -80.21, -80.20 87.77 10/22/2019 03:11:56 -80.21, -80.09 87.79 2.15 26




NCC Satellite Simultaneous Nadir Overpasses (SNOs) Prediction Service
